| time (UTC) | temp F | wind direction | speed knots | gust knots | rain 1hr in | rain 24hr in | rain mn in | humidity % | barometer mb |
| 20260504081535 | 36 | 341 | 0.0 | 0.0 | 0.00 | 0.00 | 0.00 | 92 | 1013.4 |
| 20260504050009 | 37 | 341 | 0.0 | 0.0 | 0.00 | 0.00 | 0.00 | 89 | 1013.1 |
| 20260504044507 | 37 | 341 | 0.0 | 0.0 | 0.00 | 0.00 | 0.00 | 88 | 1012.9 |
| 20260504043004 | 38 | 341 | 0.0 | 0.0 | 0.00 | 0.00 | 0.00 | 88 | 1013.0 |
| 20260504041503 | 38 | 341 | 0.0 | 0.0 | 0.00 | 0.00 | 0.00 | 87 | 1012.9 |
| 20260504034559 | 39 | 341 | 0.0 | 0.0 | 0.00 | 0.00 | 0.00 | 85 | 1012.7 |
| 20260504033116 | 40 | 341 | 0.0 | 0.0 | 0.00 | 0.00 | 0.00 | 84 | 1012.7 |
| 20260504031603 | 40 | 341 | 0.0 | 0.0 | 0.00 | 0.00 | 0.00 | 81 | 1012.8 |
| 20260504030056 | 41 | 341 | 0.0 | 0.0 | 0.00 | 0.00 | 0.00 | 77 | 1012.7 |
| 20260504024601 | 42 | 341 | 0.0 | 0.0 | 0.00 | 0.00 | 0.00 | 76 | 1012.7 |
| 20260504023056 | 42 | 341 | 0.0 | 0.0 | 0.00 | 0.00 | 0.00 | 73 | 1012.7 |
| 20260504021555 | 43 | 341 | 0.0 | 0.0 | 0.00 | 0.00 | 0.00 | 71 | 1012.7 |
| 20260504020053 | 44 | 341 | 0.0 | 0.0 | 0.00 | 0.00 | 0.00 | 69 | 1012.8 |
| 20260504014552 | 45 | 341 | 0.0 | 0.0 | 0.00 | 0.00 | 0.00 | 68 | 1012.7 |
| 20260504013105 | 46 | 341 | 0.0 | 0.0 | 0.00 | 0.00 | 0.00 | 63 | 1012.6 |
| 20260504011552 | 47 | 341 | 0.0 | 0.0 | 0.00 | 0.00 | 0.00 | 65 | 1012.5 |
| 20260504010052 | 48 | 341 | 0.0 | 0.0 | 0.00 | 0.00 | 0.00 | 62 | 1012.3 |
| 20260504004601 | 49 | 341 | 0.0 | 0.0 | 0.00 | 0.00 | 0.00 | 57 | 1012.2 |
| 20260504003049 | 51 | 340 | 0.0 | 0.0 | 0.00 | 0.00 | 0.00 | 54 | 1012.1 |
| 20260504001548 | 53 | 341 | 0.0 | 0.0 | 0.00 | 0.00 | 0.00 | 50 | 1011.8 |
| 20260504000050 | 54 | 341 | 0.0 | 0.9 | 0.00 | 0.00 | 0.00 | 44 | 1011.5 |
| 20260503234546 | 55 | 346 | 0.0 | 1.7 | 0.00 | 0.00 | 0.00 | 41 | 1011.3 |
| 20260503233045 | 56 | 345 | 0.0 | 2.6 | 0.00 | 0.00 | 0.00 | 40 | 1011.3 |
| 20260503231551 | 56 | 261 | 0.0 | 5.2 | 0.00 | 0.00 | 0.00 | 39 | 1011.1 |
| 20260503230042 | 56 | 335 | 0.9 | 3.5 | 0.00 | 0.00 | 0.00 | 37 | 1010.9 |
| 20260503224542 | 56 | 245 | 0.0 | 3.5 | 0.00 | 0.00 | 0.00 | 35 | 1010.9 |
| 20260503223041 | 57 | 334 | 0.0 | 2.6 | 0.00 | 0.00 | 0.00 | 35 | 1010.8 |
| 20260503221539 | 57 | 351 | 0.0 | 3.5 | 0.00 | 0.00 | 0.00 | 34 | 1010.7 |
| 20260503220040 | 58 | 352 | 0.9 | 2.6 | 0.00 | 0.00 | 0.00 | 33 | 1010.7 |
| 20260503214537 | 58 | 359 | 0.0 | 6.1 | 0.00 | 0.00 | 0.00 | 34 | 1010.6 |
| 20260503213036 | 57 | 336 | 0.0 | 7.8 | 0.00 | 0.00 | 0.00 | 34 | 1010.6 |
| 20260503211539 | 58 | 316 | 0.0 | 2.6 | 0.00 | 0.00 | 0.00 | 36 | 1010.5 |
| 20260503210033 | 57 | 5 | 0.9 | 4.3 | 0.00 | 0.00 | 0.00 | 36 | 1010.6 |
| 20260503204533 | 57 | 324 | 0.9 | 6.1 | 0.00 | 0.00 | 0.00 | 36 | 1010.7 |
| 20260503203031 | 58 | 339 | 0.9 | 4.3 | 0.00 | 0.00 | 0.00 | 38 | 1010.7 |
| 20260503201529 | 59 | 6 | 0.0 | 3.5 | 0.00 | 0.00 | 0.00 | 39 | 1010.8 |
| 20260503200026 | 60 | 9 | 0.0 | 3.5 | 0.00 | 0.00 | 0.00 | 40 | 1011.0 |
| 20260503194522 | 57 | 71 | 0.0 | 1.7 | 0.00 | 0.00 | 0.00 | 43 | 1011.0 |
| 20260503193034 | 55 | 295 | 0.0 | 2.6 | 0.00 | 0.00 | 0.00 | 44 | 1011.3 |
| 20260503191518 | 55 | 302 | 0.9 | 4.3 | 0.00 | 0.00 | 0.00 | 42 | 1011.4 |
| 20260503190030 | 56 | 348 | 0.0 | 3.5 | 0.00 | 0.00 | 0.00 | 41 | 1011.4 |
| 20260503184516 | 54 | 331 | 0.9 | 3.5 | 0.00 | 0.00 | 0.00 | 45 | 1011.5 |
| 20260503183010 | 54 | 304 | 1.7 | 4.3 | 0.00 | 0.00 | 0.00 | 44 | 1012.0 |
| 20260503181509 | 55 | 325 | 2.6 | 10.4 | 0.00 | 0.00 | 0.00 | 44 | 1011.9 |
| 20260503180007 | 54 | 19 | 1.7 | 4.3 | 0.00 | 0.00 | 0.00 | 47 | 1011.8 |
| 20260503174507 | 53 | 105 | 0.0 | 5.2 | 0.00 | 0.00 | 0.00 | 49 | 1011.9 |
| 20260503173015 | 52 | 334 | 0.0 | 3.5 | 0.00 | 0.00 | 0.00 | 49 | 1012.0 |
| 20260503171505 | 52 | 35 | 0.9 | 4.3 | 0.00 | 0.00 | 0.00 | 45 | 1012.1 |